Location: Santa Fe
(35.6870°N, 105.9370°W)
Time: 18:14:39
(UTC-06:00)

Amateur Radio Satellites - All Passes

Search period start: 16 October 2017 17:44
Search period end: 17 October 2017 17:44
Location: Santa Fe, 35.6870°N, 105.9370°W

Satellite Date Start Highest point End Downlink Frequencies (MHz)
Time Altitude Azimuth
NUDT-PHONESAT 16 Oct 17:46:17 17:48:39 16° 69° (ENE) 17:51:01 437.300
PCSat 16 Oct 17:56:26 18:00:29 21° 51° (NE) 18:04:31 145.827
XW-2C 16 Oct 18:02:37 18:06:12 39° 74° (ENE) 18:09:46 145.795 - 145.815
CUTE-I 16 Oct 18:19:46 18:24:57 58° 73° (ENE) 18:30:11 437.470
STARS 16 Oct 18:26:56 18:31:11 43° 100° (E) 18:35:24 437.465
nSIGHT-1 16 Oct 18:30:36 18:33:42 44° 38° (NE) 18:36:47 .
HO-68 16 Oct 18:40:27 18:47:02 42° 67° (ENE) 18:53:40 435.675
LilacSat-2 16 Oct 18:47:18 18:51:00 44° 261° (W) 18:54:41 437.200
CUTE 1.7 + AOD 2 16 Oct 18:51:03 18:54:45 30° 72° (ENE) 18:58:27 437.475
XW-2F 16 Oct 18:51:24 18:55:03 45° 261° (W) 18:58:43 145.980 - 146.000
ISS 16 Oct 18:52:29 18:55:45 68° 41° (NE) 18:59:00 437.550
KAITUO 1B 16 Oct 18:57:06 19:00:46 50° 261° (W) 19:04:25 145.475/437.950
SO-50 16 Oct 18:58:48 19:00:23 12° 253° (WSW) 19:01:57 436.795
XW-2D 16 Oct 19:00:35 19:03:59 31° 263° (W) 19:07:25 145.860 - 145.880
CUBEBUG 2 16 Oct 19:06:39 19:10:32 28° 70° (ENE) 19:14:31 437.445
SEEDS 16 Oct 19:06:48 19:10:19 27° 72° (ENE) 19:13:52 437.485
XW-2B 16 Oct 19:14:20 19:17:22 22° 264° (W) 19:20:22 145.730 - 145.750
NUDT-PHONESAT 16 Oct 19:19:04 19:22:16 26° 263° (W) 19:25:27 437.300
KKS-1 16 Oct 19:19:08 19:22:17 19° 293° (WNW) 19:25:24 437.445
AO-73 16 Oct 19:24:33 19:25:54 11° 64° (ENE) 19:27:14 145.935
PCSat 16 Oct 19:38:55 19:44:10 51° 248° (WSW) 19:49:22 145.827
XW-2C 16 Oct 19:39:20 19:40:31 11° 268° (W) 19:41:42 145.795 - 145.815
STRAND 1 16 Oct 19:41:36 19:45:46 24° 95° (E) 19:49:53 437.568
ZACube-1 16 Oct 19:41:43 19:45:02 20° 68° (ENE) 19:48:24 437.345
AAUSAT CUBESAT 2 16 Oct 19:43:40 19:47:16 30° 72° (ENE) 19:50:53 437.432
UWE-3 16 Oct 19:53:07 19:57:34 51° 74° (ENE) 20:02:05 435.000/436.395/437.385
YUBILEINY 16 Oct 20:00:11 20:06:04 19° 67° (ENE) 20:11:56 435.215
CUTE-I 16 Oct 20:02:27 20:05:20 15° 268° (W) 20:08:13 437.470
STARS 16 Oct 20:04:34 20:07:07 15° 294° (WNW) 20:09:39 437.465
nSIGHT-1 16 Oct 20:07:59 20:09:41 14° 232° (SW) 20:11:22 .
XW-2A 16 Oct 20:25:04 20:28:21 43° 261° (W) 20:31:38 145.665 - 145.685
Oscar 11 16 Oct 20:25:27 20:29:25 35° 72° (ENE) 20:33:21 .
CUTE 1.7 + AOD 2 16 Oct 20:27:35 20:30:34 19° 266° (W) 20:33:35 437.475
HO-68 16 Oct 20:28:26 20:34:45 33° 263° (W) 20:41:07 435.675
SEEDS 16 Oct 20:42:51 20:45:58 20° 265° (W) 20:49:04 437.485
CUBEBUG 2 16 Oct 20:43:16 20:47:02 25° 265° (W) 20:50:54 437.445
AO-73 16 Oct 20:57:00 21:01:30 65° 260° (W) 21:06:04 145.935
FO-29 16 Oct 20:59:26 21:05:18 29° 96° (E) 21:11:36 435.910
ZACube-1 16 Oct 21:16:55 21:21:02 34° 263° (W) 21:25:13 437.345
AAUSAT CUBESAT 2 16 Oct 21:20:00 21:22:44 17° 266° (W) 21:25:28 437.432
STRAND 1 16 Oct 21:20:19 21:24:56 34° 290° (WNW) 21:29:32 437.568
UWE-3 16 Oct 21:32:05 21:34:16 13° 269° (W) 21:36:28 435.000/436.395/437.385
O/OREOS (USA 219) 16 Oct 21:33:50 21:38:18 62° 107° (ESE) 21:42:49 437.305
DELFI C3 16 Oct 21:50:07 21:53:59 71° 76° (ENE) 21:57:53 145.870
YUBILEINY 16 Oct 21:54:59 22:03:47 80° 266° (W) 22:12:36 435.215
EO-88 16 Oct 22:01:57 22:05:28 47° 75° (ENE) 22:09:00 145.990 - 145.960
Max Valier Satellite 16 Oct 22:02:00 22:05:42 71° 77° (ENE) 22:09:27 145.860
Oscar 11 16 Oct 22:02:48 22:05:36 17° 266° (W) 22:08:24 .
UNISAT 6 16 Oct 22:13:33 22:17:30 27° 96° (E) 22:21:22 437.425
BEESAT 3 16 Oct 22:26:01 22:29:52 48° 58° (ENE) 22:33:38 437.485
TIGRISAT 16 Oct 22:29:16 22:33:34 38° 97° (E) 22:37:46 435.000
AO-85 16 Oct 22:38:49 22:42:07 19° 51° (NE) 22:45:34 145.980
FO-29 16 Oct 22:43:51 22:50:21 49° 288° (WNW) 22:57:31 435.910
PRISM 16 Oct 22:58:45 23:02:32 35° 98° (E) 23:06:20 437.425
LO-87 16 Oct 23:05:04 23:08:17 33° 74° (ENE) 23:11:34 145.935 - 145.965
RS-15 16 Oct 23:14:20 23:16:17 10° 94° (E) 23:18:14 29.354- 29.394
O/OREOS (USA 219) 16 Oct 23:16:17 23:18:07 12° 304° (WNW) 23:19:58 437.305
ESTCUBE 1 16 Oct 23:24:53 23:29:09 44° 73° (ENE) 23:33:26 437.505/2401.250
BEESAT 2 16 Oct 23:36:45 23:40:48 90° 75° (ENE) 23:44:46 435.950
UNISAT 6 16 Oct 23:50:19 23:54:03 24° 291° (WNW) 23:57:42 437.425
YUBILEINY 16 Oct 23:55:55 23:59:03 12° 283° (WNW) 00:02:12 435.215
EO-79 17 Oct 00:01:27 00:04:05 16° 94° (E) 00:06:41 145.935-145.965
POLYITAN 1 17 Oct 00:04:49 00:07:40 17° 94° (E) 00:10:30 437.675
BEESAT 3 17 Oct 00:05:53 00:06:55 11° 253° (WSW) 00:07:55 437.485
TIGRISAT 17 Oct 00:06:46 00:09:54 18° 293° (WNW) 00:13:00 435.000
AO-85 17 Oct 00:18:12 00:22:42 48° 244° (WSW) 00:27:30 145.980
QB50P2 17 Oct 00:23:56 00:27:49 33° 98° (E) 00:31:37 145.880/145.840
AIST 2D 17 Oct 00:26:56 00:30:22 68° 283° (WNW) 00:33:48 435.315
NANOSAT C BR1 17 Oct 00:31:26 00:35:14 32° 97° (E) 00:39:01 145.865
PRISM 17 Oct 00:34:59 00:37:29 16° 293° (WNW) 00:39:59 437.425
LO-87 17 Oct 00:40:34 00:41:48 11° 267° (W) 00:43:01 145.935 - 145.965
DUCHIFAT 1 17 Oct 00:44:21 00:48:20 39° 99° (E) 00:52:17 145.980
50 SAT 17 Oct 00:47:42 00:48:55 12° 68° (ENE) 00:50:08 437.505
DX 1 17 Oct 00:53:16 00:55:58 16° 67° (ENE) 00:58:39 434.975-435.025
SPROUT 17 Oct 00:54:23 00:58:38 73° 258° (WSW) 01:02:56 437.525
ESTCUBE 1 17 Oct 01:03:44 01:06:07 14° 267° (W) 01:08:31 437.505/2401.250
VELOX 1 17 Oct 01:08:30 01:12:51 75° 258° (WSW) 01:17:14 145.980
BUGSAT 1 17 Oct 01:08:56 01:11:49 18° 94° (E) 01:14:40 437.445
RS-15 17 Oct 01:14:17 01:26:15 64° 112° (ESE) 01:38:19 29.354- 29.394
Oscar 19 17 Oct 01:17:59 01:19:38 11° 91° (E) 01:21:16 437.125/150
UKube-1 17 Oct 01:24:56 01:28:19 23° 69° (ENE) 01:31:42 .
EO-79 17 Oct 01:36:01 01:39:55 36° 288° (WNW) 01:43:48 145.935-145.965
POLYITAN 1 17 Oct 01:39:40 01:43:29 32° 288° (WNW) 01:47:16 437.675
QB50P2 17 Oct 02:00:25 02:03:18 18° 292° (WNW) 02:06:10 145.880/145.840
NANOSAT C BR1 17 Oct 02:07:44 02:10:40 18° 292° (WNW) 02:13:35 145.865
50 SAT 17 Oct 02:18:08 02:20:56 27° 262° (W) 02:23:46 437.505
DUCHIFAT 1 17 Oct 02:21:11 02:23:37 15° 293° (WNW) 02:26:01 145.980
DX 1 17 Oct 02:27:47 02:31:48 38° 261° (W) 02:35:50 434.975-435.025
M-CUBED/EXP-1 PRIME 17 Oct 02:31:06 02:34:35 56° 106° (ESE) 02:38:18 437.505
ITUPSAT 1 17 Oct 02:35:03 02:38:14 18° 66° (ENE) 02:41:25 437.325
MOZHAYETS 4 17 Oct 02:42:24 02:45:58 22° 69° (ENE) 02:49:32
BUGSAT 1 17 Oct 02:43:25 02:47:11 31° 288° (WNW) 02:50:54 437.445
BEESAT 17 Oct 02:52:18 02:56:18 27° 69° (ENE) 03:00:19 436.000
Oscar 19 17 Oct 02:54:16 02:59:22 68° 285° (WNW) 03:04:26 437.125/150
Gurwin Techsat 1B 17 Oct 02:54:23 02:59:44 81° 102° (ESE) 03:05:03 435.225
UKube-1 17 Oct 03:00:37 03:04:11 26° 263° (W) 03:07:46 .
NO-84 17 Oct 03:16:59 03:19:34 16° 122° (ESE) 03:22:09 435.350 FM
ITAMSAT 1 17 Oct 03:22:04 03:22:53 10° 91° (E) 03:23:43 435.822/435.867
RS-15 17 Oct 03:28:06 03:39:23 40° 314° (NW) 03:50:43 29.354- 29.394
ITUPSAT 1 17 Oct 04:11:08 04:15:41 43° 261° (W) 04:20:16 437.325
AO-7 17 Oct 04:16:21 04:24:28 55° 103° (ESE) 04:32:33 .
MOZHAYETS 4 17 Oct 04:18:48 04:22:54 31° 263° (W) 04:27:01
CUBESAT XI-V 17 Oct 04:19:14 04:23:44 51° 74° (ENE) 04:28:13 437.345
BEESAT 17 Oct 04:29:56 04:33:57 27° 263° (W) 04:38:00 436.000
Gurwin Techsat 1B 17 Oct 04:37:09 04:38:55 12° 299° (WNW) 04:40:43 435.225
KKS-1 17 Oct 04:37:27 04:40:55 23° 69° (ENE) 04:44:24 437.445
NO-84 17 Oct 04:52:22 04:56:37 59° 316° (NW) 05:00:49 435.350 FM
ITAMSAT 1 17 Oct 04:57:35 05:02:50 77° 285° (WNW) 05:08:03 435.822/435.867
STARS 17 Oct 05:20:49 05:24:29 27° 70° (ENE) 05:28:11 437.465
DOVE 4 17 Oct 05:38:32 05:43:06 35° 98° (E) 05:47:49 437.250
RS-15 17 Oct 05:50:07 05:56:51 16° 346° (NNW) 06:03:31 29.354- 29.394
CUBESAT XI-V 17 Oct 05:59:13 06:01:21 13° 268° (W) 06:03:28 437.345
AO-7 17 Oct 06:09:49 06:16:46 31° 300° (WNW) 06:23:45 .
KKS-1 17 Oct 06:13:33 06:17:18 27° 263° (W) 06:21:05 437.445
LilacSat-2 17 Oct 06:23:44 06:26:39 21° 96° (E) 06:29:34 437.200
XW-2F 17 Oct 06:26:44 06:29:30 20° 95° (E) 06:32:16 145.980 - 146.000
KAITUO 1B 17 Oct 06:31:42 06:34:13 17° 95° (E) 06:36:42 145.475/437.950
NO-84 17 Oct 06:33:08 06:34:46 12° 332° (NNW) 06:36:22 435.350 FM
XW-2D 17 Oct 06:35:38 06:38:56 29° 97° (E) 06:42:11 145.860 - 145.880
CUTE-I 17 Oct 06:40:05 06:44:44 29° 97° (E) 06:49:22 437.470
XW-2B 17 Oct 06:48:44 06:52:18 41° 99° (E) 06:55:50 145.730 - 145.750
NUDT-PHONESAT 17 Oct 06:51:34 06:54:50 30° 97° (E) 06:58:04 437.300
STRAND 1 17 Oct 06:54:43 06:58:55 26° 68° (ENE) 07:03:08 437.568
STARS 17 Oct 06:57:18 07:00:45 23° 264° (W) 07:04:13 437.465
XW-2C 17 Oct 07:11:36 07:15:21 88° 282° (WNW) 07:19:05 145.795 - 145.815
DOVE 4 17 Oct 07:16:41 07:20:32 23° 290° (WNW) 07:24:32 437.250
JUGNU 17 Oct 07:25:41 07:27:10 11° 167° (SSE) 07:28:40 437.505
SO-50 17 Oct 07:27:26 07:31:36 39° 114° (ESE) 07:35:48 436.795
O/OREOS (USA 219) 17 Oct 07:46:41 07:51:18 73° 69° (ENE) 07:55:51 437.305
UWE-3 17 Oct 07:47:37 07:49:41 13° 91° (E) 07:51:43 435.000/436.395/437.385
XW-2A 17 Oct 07:50:56 07:52:17 12° 93° (E) 07:53:36 145.665 - 145.685
LilacSat-2 17 Oct 07:57:59 08:00:47 20° 290° (WNW) 08:03:35 437.200
HO-68 17 Oct 07:58:12 08:05:18 57° 102° (ESE) 08:12:20 435.675
XW-2F 17 Oct 08:00:39 08:03:30 21° 289° (WNW) 08:06:20 145.980 - 146.000
KAITUO 1B 17 Oct 08:05:10 08:08:08 23° 289° (WNW) 08:11:05 145.475/437.950
RS-15 17 Oct 08:08:30 08:16:31 19° 24° (NNE) 08:24:15 29.354- 29.394
XW-2D 17 Oct 08:10:38 08:12:49 15° 291° (WNW) 08:14:59 145.860 - 145.880
CUTE 1.7 + AOD 2 17 Oct 08:13:40 08:17:52 89° 282° (WNW) 08:22:04 437.475
CUTE-I 17 Oct 08:20:02 08:24:41 31° 291° (WNW) 08:29:19 437.470
XW-2B 17 Oct 08:25:05 08:26:02 11° 293° (WNW) 08:27:00 145.730 - 145.750
NUDT-PHONESAT 17 Oct 08:26:30 08:28:23 14° 292° (WNW) 08:30:16 437.300
SEEDS 17 Oct 08:27:59 08:32:09 80° 102° (ESE) 08:36:19 437.485
STRAND 1 17 Oct 08:33:23 08:37:55 32° 263° (W) 08:42:29 437.568
PCSat 17 Oct 08:34:47 08:39:29 31° 108° (ESE) 08:44:12 145.827
CUBEBUG 2 17 Oct 08:36:01 08:40:43 90° 127° (SE) 08:45:14 437.445
AO-73 17 Oct 08:48:22 08:52:10 29° 96° (E) 08:55:52 145.935
FO-29 17 Oct 08:54:02 08:59:02 52° 72° (ENE) 09:04:16 435.910
Tancredo 1 17 Oct 08:56:56 08:58:28 21° 133° (SE) 09:00:00 437.200
YUBILEINY 17 Oct 08:58:03 09:04:30 24° 82° (E) 09:10:57 435.215
AAUSAT CUBESAT 2 17 Oct 09:03:02 09:07:10 88° 102° (ESE) 09:11:17 437.432
ZACube-1 17 Oct 09:07:45 09:12:06 58° 100° (E) 09:16:19 437.345
SO-50 17 Oct 09:08:52 09:12:11 20° 310° (NW) 09:15:32 436.795
UNISAT 6 17 Oct 09:09:54 09:13:01 18° 67° (ENE) 09:16:11 437.425
JUGNU 17 Oct 09:11:56 09:15:23 16° 177° (S) 09:18:50 437.505
UWE-3 17 Oct 09:22:02 09:26:24 48° 286° (WNW) 09:30:37 435.000/436.395/437.385
XW-2A 17 Oct 09:22:09 09:25:01 26° 287° (WNW) 09:27:51 145.665 - 145.685
TIGRISAT 17 Oct 09:25:05 09:28:45 24° 69° (ENE) 09:32:30 435.000
DELFI C3 17 Oct 09:32:06 09:33:06 11° 92° (E) 09:34:06 145.870
PRISM 17 Oct 09:45:57 09:48:37 17° 68° (ENE) 09:51:17 437.425
HO-68 17 Oct 09:46:53 09:52:30 25° 298° (WNW) 09:58:07 435.675
Oscar 11 17 Oct 09:50:58 09:55:15 73° 285° (WNW) 09:59:31 .
PCSat 17 Oct 10:17:58 10:22:46 32° 304° (NW) 10:27:37 145.827
RS-15 17 Oct 10:20:46 10:32:29 57° 54° (NE) 10:43:30 29.354- 29.394
AO-73 17 Oct 10:24:57 10:28:11 20° 291° (WNW) 10:31:21 145.935
FO-29 17 Oct 10:41:48 10:44:35 14° 269° (W) 10:47:24 435.910
UNISAT 6 17 Oct 10:45:05 10:49:22 39° 262° (W) 10:53:45 437.425
ZACube-1 17 Oct 10:46:31 10:47:47 11° 296° (WNW) 10:49:02 437.345
YUBILEINY 17 Oct 10:51:56 11:00:30 63° 280° (W) 11:09:09 435.215
AIST 2D 17 Oct 10:58:24 11:01:16 24° 72° (ENE) 11:04:08 435.315
JUGNU 17 Oct 11:00:28 11:03:36 15° 187° (S) 11:06:45 437.505
TIGRISAT 17 Oct 11:01:17 11:05:15 29° 264° (W) 11:09:18 435.000
DELFI C3 17 Oct 11:04:15 11:08:01 44° 286° (WNW) 11:11:47 145.870
nSIGHT-1 17 Oct 11:06:09 11:09:19 68° 135° (SE) 11:12:29 .
EO-88 17 Oct 11:06:33 11:10:11 82° 284° (WNW) 11:13:47 145.990 - 145.960
Max Valier Satellite 17 Oct 11:08:19 11:11:54 52° 285° (WNW) 11:15:28 145.860
QB50P2 17 Oct 11:14:18 11:17:10 18° 68° (ENE) 11:20:02 145.880/145.840
PRISM 17 Oct 11:20:02 11:23:37 30° 262° (W) 11:27:13 437.425
NANOSAT C BR1 17 Oct 11:21:20 11:24:04 17° 68° (ENE) 11:26:49 145.865
ESTCUBE 1 17 Oct 11:22:20 11:23:50 11° 92° (E) 11:25:21 437.505/2401.250
SRMSAT 17 Oct 11:28:29 11:31:49 15° 173° (S) 11:35:10 437.500
NO-84 17 Oct 11:29:02 11:32:03 23° 36° (NE) 11:34:52 435.350 FM
ISS 17 Oct 11:30:07 11:33:20 73° 318° (NW) 11:36:36 437.550
DUCHIFAT 1 17 Oct 11:33:39 11:36:46 20° 69° (ENE) 11:39:54 145.980
LO-87 17 Oct 12:07:23 12:11:00 65° 100° (E) 12:14:35 145.935 - 145.965
BEESAT 3 17 Oct 12:13:43 12:16:15 16° 109° (ESE) 12:18:48 437.485
EO-79 17 Oct 12:24:35 12:28:49 74° 258° (WSW) 12:33:06 145.935-145.965
POLYITAN 1 17 Oct 12:28:19 12:32:33 67° 259° (W) 12:36:50 437.675
Oscar 19 17 Oct 12:31:45 12:34:25 14° 63° (ENE) 12:37:04 437.125/150
AIST 2D 17 Oct 12:32:14 12:34:24 15° 266° (W) 12:36:33 435.315
RS-15 17 Oct 12:34:00 12:44:19 38° 254° (WSW) 12:54:13 29.354- 29.394
Gurwin Techsat 1B 17 Oct 12:37:22 12:38:37 11° 61° (ENE) 12:39:52 435.225
SPROUT 17 Oct 12:43:23 12:46:48 23° 95° (E) 12:50:11 437.525
nSIGHT-1 17 Oct 12:44:03 12:45:54 14° 333° (NNW) 12:47:45 .
QB50P2 17 Oct 12:48:48 12:52:40 33° 263° (W) 12:56:32 145.880/145.840
NANOSAT C BR1 17 Oct 12:55:35 12:59:27 35° 262° (W) 13:03:22 145.865
ESTCUBE 1 17 Oct 12:56:33 13:00:54 54° 286° (WNW) 13:05:16 437.505/2401.250
VELOX 1 17 Oct 13:01:41 13:05:22 25° 96° (E) 13:09:01 145.980
NO-84 17 Oct 13:06:21 13:09:25 28° 235° (SW) 13:12:15 435.350 FM
DUCHIFAT 1 17 Oct 13:08:34 13:12:12 28° 263° (W) 13:15:54 145.980
ISS 17 Oct 13:09:07 13:10:18 12° 336° (NNW) 13:11:30 437.550
M-CUBED/EXP-1 PRIME 17 Oct 13:14:38 13:17:56 39° 70° (ENE) 13:21:04 437.505
SRMSAT 17 Oct 13:16:37 13:20:14 17° 183° (S) 13:23:51 437.500
BEESAT 2 17 Oct 13:25:04 13:28:33 30° 113° (ESE) 13:32:06 435.950
AO-7 17 Oct 13:27:17 13:28:59 11° 48° (NE) 13:30:40 .
BUGSAT 1 17 Oct 13:29:10 13:33:17 69° 258° (WSW) 13:37:30 437.445
50 SAT 17 Oct 13:40:21 13:42:21 15° 95° (E) 13:44:21 437.505
BEESAT 3 17 Oct 13:49:48 13:53:29 35° 305° (NW) 13:57:12 437.485
Oscar 19 17 Oct 14:08:02 14:13:09 63° 259° (W) 14:18:17 437.125/150
Gurwin Techsat 1B 17 Oct 14:12:27 14:17:46 86° 256° (WSW) 14:23:07 435.225
DX 1 17 Oct 14:18:23 14:22:33 43° 100° (E) 14:26:41 434.975-435.025
SPROUT 17 Oct 14:19:02 14:22:36 26° 290° (WNW) 14:26:08 437.525
AO-85 17 Oct 14:30:13 14:34:04 67° 301° (WNW) 14:37:58 145.980
ITAMSAT 1 17 Oct 14:36:25 14:38:53 14° 63° (ENE) 14:41:22 435.822/435.867
VELOX 1 17 Oct 14:38:04 14:41:41 25° 290° (WNW) 14:45:17 145.980
UKube-1 17 Oct 14:49:24 14:53:42 62° 102° (ESE) 14:57:57 .
BEESAT 2 17 Oct 15:03:15 15:06:18 21° 309° (NW) 15:09:23 435.950
SRMSAT 17 Oct 15:06:51 15:08:37 11° 193° (SSW) 15:10:23 437.500
AO-7 17 Oct 15:11:55 15:20:00 58° 67° (ENE) 15:28:03 .
50 SAT 17 Oct 15:12:03 15:14:36 21° 289° (WNW) 15:17:09 437.505
DX 1 17 Oct 15:55:51 15:58:19 15° 294° (WNW) 16:00:48 434.975-435.025
SO-50 17 Oct 16:01:44 16:05:00 19° 49° (NE) 16:08:17 436.795
ITAMSAT 1 17 Oct 16:12:35 16:17:43 67° 258° (WSW) 16:22:55 435.822/435.867
ITUPSAT 1 17 Oct 16:14:09 16:18:54 59° 101° (E) 16:23:37 437.325
MOZHAYETS 4 17 Oct 16:15:59 16:20:34 75° 101° (ESE) 16:25:06
CUBESAT XI-V 17 Oct 16:19:50 16:22:36 16° 93° (E) 16:25:21 437.345
UKube-1 17 Oct 16:28:18 16:29:08 10° 296° (WNW) 16:29:58 .
BEESAT 17 Oct 16:31:53 16:36:41 86° 286° (WNW) 16:41:27 436.000
Tancredo 1 17 Oct 16:39:06 16:40:52 76° 43° (NE) 16:42:36 437.200
DOVE 4 17 Oct 16:42:18 16:45:27 21° 69° (ENE) 16:48:39 437.250
AO-7 17 Oct 17:06:17 17:13:03 28° 263° (W) 17:19:51 .
XW-2D 17 Oct 17:16:40 17:17:08 10° 67° (ENE) 17:17:35 145.860 - 145.880
PCSat 17 Oct 17:26:10 17:29:22 16° 48° (NE) 17:32:33 145.827
XW-2B 17 Oct 17:28:18 17:30:21 14° 69° (ENE) 17:32:25 145.730 - 145.750
nSIGHT-1 17 Oct 17:35:52 17:38:30 23° 33° (NNE) 17:41:07 .
